| time (UTC) | temp F | wind direction | speed MPH | gust MPH | rain 1hr in | rain 24hr in | rain mn in | humidity % | barometer mb |
| 20260510221009 | 88 | 80 | 4.0 | 11.0 | 0.00 | 0.00 | 0.00 | 56 | 1012.5 |
| 20260510220007 | 89 | 87 | 5.0 | 10.0 | 0.00 | 0.00 | 0.00 | 55 | 1012.5 |
| 20260510215004 | 89 | 82 | 4.0 | 10.0 | 0.00 | 0.00 | 0.00 | 54 | 1012.7 |
| 20260510214509 | 90 | 80 | 6.0 | 10.0 | 0.00 | 0.00 | 0.00 | 54 | 1012.7 |
| 20260510214007 | 90 | 83 | 5.0 | 8.0 | 0.00 | 0.00 | 0.00 | 55 | 1012.7 |
| 20260510213505 | 90 | 74 | 3.0 | 8.0 | 0.00 | 0.00 | 0.00 | 55 | 1012.7 |
| 20260510213006 | 90 | 94 | 4.0 | 8.0 | 0.00 | 0.00 | 0.00 | 54 | 1012.8 |
| 20260510212503 | 90 | 70 | 2.0 | 4.0 | 0.00 | 0.00 | 0.00 | 56 | 1012.9 |
| 20260510212003 | 90 | 100 | 1.0 | 4.0 | 0.00 | 0.00 | 0.00 | 58 | 1012.9 |
| 20260510211507 | 89 | 78 | 2.0 | 4.0 | 0.00 | 0.00 | 0.00 | 58 | 1012.9 |
| 20260510211006 | 88 | 81 | 0.0 | 4.0 | 0.00 | 0.00 | 0.00 | 56 | 1012.9 |
| 20260510210508 | 88 | 68 | 1.0 | 4.0 | 0.00 | 0.00 | 0.00 | 58 | 1012.9 |
| 20260510210008 | 88 | 84 | 0.0 | 4.0 | 0.00 | 0.00 | 0.00 | 58 | 1012.9 |
| 20260510205506 | 89 | 72 | 2.0 | 8.0 | 0.00 | 0.00 | 0.00 | 56 | 1012.9 |
| 20260510205006 | 89 | 78 | 4.0 | 8.0 | 0.00 | 0.00 | 0.00 | 54 | 1012.9 |
| 20260510204508 | 90 | 79 | 2.0 | 8.0 | 0.00 | 0.00 | 0.00 | 54 | 1012.9 |
| 20260510204005 | 91 | 80 | 2.0 | 6.0 | 0.00 | 0.00 | 0.00 | 56 | 1012.8 |
| 20260510202506 | 90 | 81 | 2.0 | 7.0 | 0.00 | 0.00 | 0.00 | 54 | 1012.9 |
| 20260510201508 | 91 | 88 | 2.0 | 5.0 | 0.00 | 0.00 | 0.00 | 55 | 1012.7 |
| 20260510201006 | 91 | 65 | 2.0 | 4.0 | 0.00 | 0.00 | 0.00 | 56 | 1012.7 |
| 20260510200504 | 90 | 65 | 2.0 | 7.0 | 0.00 | 0.00 | 0.00 | 58 | 1012.7 |
| 20260510200008 | 90 | 70 | 2.0 | 7.0 | 0.00 | 0.00 | 0.00 | 58 | 1012.7 |
| 20260510195503 | 90 | 88 | 2.0 | 7.0 | 0.00 | 0.00 | 0.00 | 59 | 1012.7 |
| 20260510195007 | 90 | 69 | 3.0 | 7.0 | 0.00 | 0.00 | 0.00 | 56 | 1012.8 |
| 20260510194512 | 89 | 78 | 2.0 | 6.0 | 0.00 | 0.00 | 0.00 | 61 | 1012.8 |
| 20260510193504 | 89 | 91 | 1.0 | 6.0 | 0.00 | 0.00 | 0.00 | 59 | 1012.8 |
| 20260510192504 | 90 | 94 | 2.0 | 6.0 | 0.00 | 0.00 | 0.00 | 58 | 1012.9 |
| 20260510192007 | 90 | 74 | 1.0 | 6.0 | 0.00 | 0.00 | 0.00 | 59 | 1012.9 |
| 20260510191513 | 89 | 69 | 2.0 | 6.0 | 0.00 | 0.00 | 0.00 | 58 | 1012.9 |
| 20260510191007 | 89 | 88 | 2.0 | 6.0 | 0.00 | 0.00 | 0.00 | 58 | 1012.9 |
| 20260510190506 | 89 | 94 | 1.0 | 4.0 | 0.00 | 0.00 | 0.00 | 58 | 1013.0 |
| 20260510190014 | 89 | 57 | 1.0 | 6.0 | 0.00 | 0.00 | 0.00 | 59 | 1013.0 |
| 20260510185505 | 88 | 95 | 3.0 | 7.0 | 0.00 | 0.00 | 0.00 | 62 | 1013.1 |
| 20260510185007 | 88 | 95 | 3.0 | 7.0 | 0.00 | 0.00 | 0.00 | 60 | 1013.1 |
| 20260510184524 | 88 | 91 | 1.0 | 6.0 | 0.00 | 0.00 | 0.00 | 60 | 1013.1 |
| 20260510184007 | 89 | 92 | 1.0 | 6.0 | 0.00 | 0.00 | 0.00 | 61 | 1013.1 |
| 20260510183508 | 89 | 54 | 2.0 | 6.0 | 0.00 | 0.00 | 0.00 | 59 | 1013.1 |
| 20260510183011 | 88 | 89 | 1.0 | 8.0 | 0.00 | 0.00 | 0.00 | 62 | 1013.2 |
| 20260510182504 | 88 | 90 | 3.0 | 8.0 | 0.00 | 0.00 | 0.00 | 62 | 1013.3 |
| 20260510182008 | 87 | 94 | 2.0 | 7.0 | 0.00 | 0.00 | 0.00 | 63 | 1013.4 |
| 20260510174514 | 86 | 78 | 1.0 | 7.0 | 0.00 | 0.00 | 0.00 | 65 | 1013.8 |
| 20260510174011 | 86 | 78 | 2.0 | 7.0 | 0.00 | 0.00 | 0.00 | 65 | 1013.8 |
| 20260510173507 | 86 | 67 | 2.0 | 7.0 | 0.00 | 0.00 | 0.00 | 65 | 1013.8 |
| 20260510173014 | 86 | 78 | 3.0 | 8.0 | 0.00 | 0.00 | 0.00 | 67 | 1013.9 |
| 20260510172504 | 86 | 91 | 2.0 | 8.0 | 0.00 | 0.00 | 0.00 | 69 | 1014.0 |
| 20260510172008 | 86 | 86 | 3.0 | 8.0 | 0.00 | 0.00 | 0.00 | 68 | 1014.0 |
| 20260510171513 | 86 | 101 | 1.0 | 8.0 | 0.00 | 0.00 | 0.00 | 68 | 1014.1 |
| 20260510171008 | 86 | 87 | 1.0 | 8.0 | 0.00 | 0.00 | 0.00 | 68 | 1014.1 |
| 20260510165508 | 85 | 90 | 2.0 | 9.0 | 0.00 | 0.00 | 0.00 | 69 | 1014.3 |
| 20260510165007 | 85 | 103 | 3.0 | 6.0 | 0.00 | 0.00 | 0.00 | 69 | 1014.4 |
| 20260510164515 | 85 | 93 | 2.0 | 8.0 | 0.00 | 0.00 | 0.00 | 71 | 1014.5 |
| 20260510164010 | 83 | 66 | 3.0 | 8.0 | 0.00 | 0.00 | 0.00 | 71 | 1014.6 |
| 20260510163508 | 84 | 79 | 4.0 | 9.0 | 0.00 | 0.00 | 0.00 | 68 | 1014.6 |
| 20260510163016 | 84 | 81 | 3.0 | 9.0 | 0.00 | 0.00 | 0.00 | 70 | 1014.6 |
| 20260510162507 | 84 | 75 | 3.0 | 7.0 | 0.00 | 0.00 | 0.00 | 71 | 1014.6 |
| 20260510162006 | 84 | 84 | 3.0 | 7.0 | 0.00 | 0.00 | 0.00 | 69 | 1014.8 |
| 20260510161515 | 83 | 94 | 4.0 | 7.0 | 0.00 | 0.00 | 0.00 | 70 | 1014.8 |
| 20260510161009 | 83 | 88 | 2.0 | 7.0 | 0.00 | 0.00 | 0.00 | 72 | 1014.9 |
| 20260510160505 | 84 | 74 | 2.0 | 7.0 | 0.00 | 0.00 | 0.00 | 71 | 1014.9 |
| 20260510160016 | 83 | 92 | 4.0 | 9.0 | 0.00 | 0.00 | 0.00 | 71 | 1014.9 |
| 20260510155507 | 83 | 94 | 4.0 | 9.0 | 0.00 | 0.00 | 0.00 | 70 | 1015.0 |
| 20260510155009 | 83 | 101 | 2.0 | 6.0 | 0.00 | 0.00 | 0.00 | 73 | 1015.1 |
| 20260510154518 | 82 | 96 | 3.0 | 6.0 | 0.00 | 0.00 | 0.00 | 73 | 1015.1 |
| 20260510154008 | 82 | 103 | 2.0 | 8.0 | 0.00 | 0.00 | 0.00 | 75 | 1015.1 |
| 20260510153507 | 82 | 96 | 2.0 | 8.0 | 0.00 | 0.00 | 0.00 | 75 | 1015.1 |
| 20260510153019 | 82 | 75 | 2.0 | 6.0 | 0.00 | 0.00 | 0.00 | 75 | 1015.1 |
| 20260510152508 | 81 | 90 | 0.0 | 5.0 | 0.00 | 0.00 | 0.00 | 78 | 1015.1 |
| 20260510152010 | 80 | 66 | 1.0 | 6.0 | 0.00 | 0.00 | 0.00 | 78 | 1015.3 |
| 20260510151517 | 80 | 96 | 3.0 | 6.0 | 0.00 | 0.00 | 0.00 | 77 | 1015.2 |
| 20260510151013 | 80 | 79 | 2.0 | 5.0 | 0.00 | 0.00 | 0.00 | 78 | 1015.2 |
| 20260510150508 | 80 | 76 | 0.0 | 4.0 | 0.00 | 0.00 | 0.00 | 79 | 1015.2 |
| 20260510150017 | 80 | 77 | 1.0 | 4.0 | 0.00 | 0.00 | 0.00 | 78 | 1015.2 |
| 20260510145513 | 80 | 94 | 1.0 | 6.0 | 0.00 | 0.00 | 0.00 | 79 | 1015.1 |
| 20260510145007 | 80 | 101 | 1.0 | 6.0 | 0.00 | 0.00 | 0.00 | 79 | 1015.1 |
| 20260510144523 | 80 | 90 | 3.0 | 6.0 | 0.00 | 0.00 | 0.00 | 78 | 1015.2 |
| 20260510144012 | 80 | 86 | 2.0 | 4.0 | 0.00 | 0.00 | 0.00 | 80 | 1015.1 |
| 20260510143509 | 79 | 82 | 1.0 | 6.0 | 0.00 | 0.00 | 0.00 | 82 | 1015.0 |
| 20260510143027 | 79 | 87 | 2.0 | 6.0 | 0.00 | 0.00 | 0.00 | 80 | 1015.0 |
| 20260510142507 | 80 | 86 | 1.0 | 4.0 | 0.00 | 0.00 | 0.00 | 82 | 1015.0 |
| 20260510142006 | 78 | 105 | 1.0 | 4.0 | 0.00 | 0.00 | 0.00 | 83 | 1014.9 |
| 20260510141521 | 78 | 86 | 1.0 | 5.0 | 0.00 | 0.00 | 0.00 | 82 | 1015.0 |
| 20260510141012 | 79 | 82 | 2.0 | 5.0 | 0.00 | 0.00 | 0.00 | 83 | 1015.1 |
| 20260510140507 | 78 | 239 | 1.0 | 4.0 | 0.00 | 0.00 | 0.00 | 85 | 1015.1 |
| 20260510140019 | 78 | 182 | 0.0 | 4.0 | 0.00 | 0.00 | 0.00 | 84 | 1015.1 |
| 20260510135508 | 78 | 105 | 1.0 | 4.0 | 0.00 | 0.00 | 0.00 | 83 | 1015.1 |
| 20260510135009 | 78 | 91 | 1.0 | 4.0 | 0.00 | 0.00 | 0.00 | 83 | 1015.1 |
| 20260510134523 | 78 | 85 | 1.0 | 6.0 | 0.00 | 0.00 | 0.00 | 83 | 1014.9 |
| 20260510134010 | 78 | 87 | 1.0 | 6.0 | 0.00 | 0.00 | 0.00 | 85 | 1014.8 |
| 20260510133508 | 78 | 76 | 2.0 | 4.0 | 0.00 | 0.00 | 0.00 | 85 | 1014.7 |
| 20260510133022 | 77 | 76 | 2.0 | 4.0 | 0.00 | 0.00 | 0.00 | 85 | 1014.6 |
| 20260510132510 | 77 | 278 | 2.0 | 4.0 | 0.00 | 0.00 | 0.00 | 86 | 1014.5 |
| 20260510132010 | 77 | 278 | 2.0 | 4.0 | 0.00 | 0.00 | 0.00 | 86 | 1014.5 |
| 20260510131520 | 76 | 277 | 2.0 | 4.0 | 0.00 | 0.00 | 0.00 | 87 | 1014.4 |
| 20260510131007 | 76 | 277 | 2.0 | 3.0 | 0.00 | 0.00 | 0.00 | 87 | 1014.3 |
| 20260510130509 | 76 | 277 | 1.0 | 3.0 | 0.00 | 0.00 | 0.00 | 88 | 1014.2 |
| 20260510130024 | 75 | 276 | 1.0 | 2.0 | 0.00 | 0.00 | 0.00 | 89 | 1014.1 |
| 20260510125505 | 75 | 276 | 1.0 | 3.0 | 0.00 | 0.00 | 0.00 | 89 | 1014.0 |
| 20260510125010 | 75 | 276 | 1.0 | 3.0 | 0.00 | 0.00 | 0.00 | 89 | 1014.0 |
| 20260510124521 | 75 | 276 | 1.0 | 2.0 | 0.00 | 0.00 | 0.00 | 90 | 1013.9 |
| 20260510124009 | 75 | 276 | 0.0 | 2.0 | 0.00 | 0.00 | 0.00 | 90 | 1013.8 |
| 20260510123014 | 75 | 276 | 0.0 | 1.0 | 0.00 | 0.00 | 0.00 | 90 | 1013.5 |
| 20260510122507 | 74 | 276 | 0.0 | 2.0 | 0.00 | 0.00 | 0.00 | 90 | 1013.4 |
| 20260510122007 | 74 | 276 | 0.0 | 2.0 | 0.00 | 0.00 | 0.00 | 90 | 1013.4 |
| 20260510121520 | 74 | 276 | 0.0 | 2.0 | 0.00 | 0.00 | 0.00 | 90 | 1013.2 |
| 20260510121007 | 74 | 276 | 0.0 | 2.0 | 0.00 | 0.00 | 0.00 | 90 | 1013.1 |
| 20260510120508 | 74 | 84 | 0.0 | 2.0 | 0.00 | 0.00 | 0.00 | 90 | 1013.1 |
| 20260510120024 | 74 | 84 | 0.0 | 2.0 | 0.00 | 0.00 | 0.00 | 90 | 1013.0 |
| 20260510115511 | 74 | 80 | 0.0 | 2.0 | 0.00 | 0.00 | 0.00 | 90 | 1012.9 |
| 20260510115010 | 74 | 76 | 0.0 | 1.0 | 0.00 | 0.00 | 0.00 | 90 | 1012.8 |
| 20260510114522 | 74 | 71 | 0.0 | 1.0 | 0.00 | 0.00 | 0.00 | 90 | 1012.6 |
| 20260510114011 | 74 | 71 | 0.0 | 3.0 | 0.00 | 0.00 | 0.00 | 90 | 1012.4 |
| 20260510112510 | 74 | 88 | 0.0 | 3.0 | 0.00 | 0.00 | 0.00 | 90 | 1012.0 |
| 20260510112010 | 74 | 88 | 0.0 | 3.0 | 0.00 | 0.00 | 0.00 | 90 | 1012.0 |
| 20260510111521 | 74 | 69 | 0.0 | 3.0 | 0.00 | 0.00 | 0.00 | 90 | 1011.8 |
| 20260510111012 | 74 | 49 | 0.0 | 3.0 | 0.00 | 0.00 | 0.00 | 90 | 1011.7 |
| 20260510110506 | 74 | 78 | 1.0 | 4.0 | 0.00 | 0.00 | 0.00 | 90 | 1011.6 |
| 20260510110032 | 74 | 82 | 0.0 | 4.0 | 0.00 | 0.00 | 0.00 | 91 | 1011.6 |
| 20260510105507 | 74 | 55 | 1.0 | 3.0 | 0.00 | 0.00 | 0.00 | 91 | 1011.6 |
| 20260510105011 | 74 | 74 | 0.0 | 3.0 | 0.00 | 0.00 | 0.00 | 91 | 1011.7 |
| 20260510104524 | 74 | 67 | 0.0 | 3.0 | 0.00 | 0.00 | 0.00 | 91 | 1011.7 |
| 20260510104006 | 74 | 69 | 0.0 | 3.0 | 0.00 | 0.00 | 0.00 | 91 | 1011.7 |
| 20260510103021 | 74 | 59 | 1.0 | 3.0 | 0.00 | 0.00 | 0.00 | 91 | 1011.5 |
| 20260510102514 | 74 | 74 | 0.0 | 3.0 | 0.00 | 0.00 | 0.00 | 91 | 1011.5 |
| 20260510102010 | 74 | 70 | 1.0 | 4.0 | 0.00 | 0.00 | 0.00 | 91 | 1011.4 |
| 20260510101526 | 74 | 86 | 1.0 | 4.0 | 0.00 | 0.00 | 0.00 | 91 | 1011.4 |
| 20260510101012 | 74 | 70 | 1.0 | 3.0 | 0.00 | 0.00 | 0.00 | 92 | 1011.4 |
| 20260510100515 | 74 | 78 | 0.0 | 3.0 | 0.00 | 0.00 | 0.00 | 92 | 1011.4 |
| 20260510100025 | 74 | 78 | 1.0 | 6.0 | 0.00 | 0.00 | 0.00 | 92 | 1011.5 |
| 20260510095507 | 74 | 82 | 1.0 | 7.0 | 0.00 | 0.00 | 0.00 | 92 | 1011.4 |
| 20260510095007 | 74 | 65 | 0.0 | 7.0 | 0.00 | 0.00 | 0.00 | 92 | 1011.3 |
| 20260510094522 | 74 | 67 | 1.0 | 5.0 | 0.00 | 0.00 | 0.00 | 92 | 1011.3 |
| 20260510093507 | 73 | 74 | 1.0 | 3.0 | 0.00 | 0.00 | 0.00 | 92 | 1011.2 |
| 20260510092504 | 73 | 73 | 0.0 | 3.0 | 0.00 | 0.00 | 0.00 | 92 | 1011.0 |
| 20260510092004 | 73 | 76 | 1.0 | 3.0 | 0.00 | 0.00 | 0.00 | 91 | 1011.0 |
| 20260510091505 | 73 | 67 | 0.0 | 3.0 | 0.00 | 0.00 | 0.00 | 91 | 1011.0 |
| 20260510091004 | 73 | 69 | 0.0 | 2.0 | 0.00 | 0.00 | 0.00 | 91 | 1011.0 |
| 20260510090016 | 73 | 69 | 0.0 | 2.0 | 0.00 | 0.00 | 0.00 | 91 | 1011.0 |
| 20260510085007 | 74 | 71 | 0.0 | 2.0 | 0.00 | 0.00 | 0.00 | 91 | 1011.1 |
| 20260510084522 | 74 | 71 | 1.0 | 2.0 | 0.00 | 0.00 | 0.00 | 91 | 1011.2 |
| 20260510084007 | 74 | 71 | 0.0 | 2.0 | 0.00 | 0.00 | 0.00 | 91 | 1011.2 |
| 20260510083510 | 74 | 71 | 0.0 | 2.0 | 0.00 | 0.00 | 0.00 | 91 | 1011.2 |
| 20260510082506 | 74 | 71 | 0.0 | 2.0 | 0.00 | 0.00 | 0.00 | 90 | 1011.1 |
| 20260510082004 | 74 | 76 | 0.0 | 2.0 | 0.00 | 0.00 | 0.00 | 90 | 1011.1 |
| 20260510081507 | 74 | 69 | 0.0 | 2.0 | 0.00 | 0.00 | 0.00 | 90 | 1011.0 |
| 20260510081004 | 74 | 83 | 0.0 | 2.0 | 0.00 | 0.00 | 0.00 | 90 | 1011.1 |
| 20260510080506 | 74 | 68 | 0.0 | 2.0 | 0.00 | 0.00 | 0.00 | 90 | 1011.0 |
| 20260510080012 | 74 | 79 | 0.0 | 2.0 | 0.00 | 0.00 | 0.00 | 90 | 1011.1 |
| 20260510075507 | 74 | 77 | 0.0 | 2.0 | 0.00 | 0.00 | 0.00 | 90 | 1011.1 |
| 20260510075012 | 74 | 92 | 0.0 | 2.0 | 0.00 | 0.00 | 0.00 | 90 | 1011.2 |
| 20260510074521 | 74 | 74 | 0.0 | 2.0 | 0.00 | 0.00 | 0.00 | 89 | 1011.2 |
| 20260510074010 | 74 | 66 | 0.0 | 2.0 | 0.00 | 0.00 | 0.00 | 89 | 1011.2 |
| 20260510073510 | 74 | 76 | 0.0 | 1.0 | 0.00 | 0.00 | 0.00 | 89 | 1011.3 |
| 20260510072504 | 74 | 76 | 0.0 | 0.0 | 0.00 | 0.00 | 0.00 | 89 | 1011.5 |
| 20260510072004 | 74 | 76 | 0.0 | 0.0 | 0.00 | 0.00 | 0.00 | 89 | 1011.6 |
| 20260510071510 | 74 | 76 | 0.0 | 0.0 | 0.00 | 0.00 | 0.00 | 89 | 1011.5 |
| 20260510070506 | 75 | 76 | 0.0 | 2.0 | 0.00 | 0.00 | 0.00 | 88 | 1011.5 |
| 20260510070014 | 75 | 76 | 0.0 | 2.0 | 0.00 | 0.00 | 0.00 | 88 | 1011.6 |
| 20260510065509 | 75 | 67 | 0.0 | 2.0 | 0.00 | 0.00 | 0.00 | 88 | 1011.5 |
| 20260510065009 | 75 | 84 | 0.0 | 2.0 | 0.00 | 0.00 | 0.00 | 88 | 1011.4 |
| 20260510064520 | 75 | 68 | 0.0 | 2.0 | 0.00 | 0.00 | 0.00 | 88 | 1011.4 |
| 20260510064009 | 75 | 77 | 0.0 | 3.0 | 0.00 | 0.00 | 0.00 | 88 | 1011.4 |
| 20260510063512 | 75 | 91 | 1.0 | 3.0 | 0.00 | 0.00 | 0.00 | 88 | 1011.4 |
| 20260510063009 | 75 | 85 | 0.0 | 3.0 | 0.00 | 0.00 | 0.00 | 88 | 1011.5 |
| 20260510062506 | 75 | 93 | 0.0 | 2.0 | 0.00 | 0.00 | 0.00 | 88 | 1011.4 |
| 20260510062005 | 75 | 94 | 0.0 | 2.0 | 0.00 | 0.00 | 0.00 | 88 | 1011.5 |
| 20260510061511 | 75 | 88 | 0.0 | 7.0 | 0.00 | 0.00 | 0.00 | 88 | 1011.5 |
| 20260510061007 | 75 | 88 | 1.0 | 7.0 | 0.00 | 0.00 | 0.00 | 88 | 1011.5 |
| 20260510060508 | 75 | 83 | 2.0 | 6.0 | 0.00 | 0.00 | 0.00 | 88 | 1011.5 |
| 20260510060017 | 75 | 96 | 0.0 | 4.0 | 0.00 | 0.00 | 0.00 | 88 | 1011.4 |
| 20260510055513 | 75 | 78 | 1.0 | 6.0 | 0.00 | 0.00 | 0.00 | 88 | 1011.4 |
| 20260510055010 | 75 | 84 | 1.0 | 6.0 | 0.00 | 0.00 | 0.00 | 88 | 1011.5 |
| 20260510054524 | 75 | 86 | 1.0 | 3.0 | 0.00 | 0.00 | 0.00 | 88 | 1011.5 |
| 20260510054012 | 75 | 65 | 0.0 | 3.0 | 0.00 | 0.00 | 0.00 | 88 | 1011.6 |
| 20260510053511 | 75 | 90 | 0.0 | 4.0 | 0.00 | 0.00 | 0.00 | 87 | 1011.7 |
| 20260510053007 | 75 | 91 | 0.0 | 4.0 | 0.00 | 0.00 | 0.00 | 87 | 1011.7 |
| 20260510052504 | 75 | 76 | 1.0 | 4.0 | 0.00 | 0.00 | 0.00 | 87 | 1011.7 |
| 20260510052007 | 76 | 100 | 1.0 | 4.0 | 0.00 | 0.00 | 0.00 | 87 | 1011.7 |
| 20260510051516 | 76 | 86 | 1.0 | 4.0 | 0.00 | 0.00 | 0.00 | 87 | 1011.7 |
| 20260510051005 | 76 | 84 | 0.0 | 3.0 | 0.00 | 0.00 | 0.00 | 87 | 1011.7 |
| 20260510050509 | 76 | 78 | 1.0 | 3.0 | 0.00 | 0.00 | 0.00 | 87 | 1011.8 |
| 20260510050020 | 76 | 89 | 1.0 | 3.0 | 0.00 | 0.00 | 0.00 | 87 | 1011.7 |
| 20260510045510 | 76 | 105 | 1.0 | 4.0 | 0.00 | 0.00 | 0.00 | 87 | 1011.6 |
| 20260510045011 | 76 | 81 | 1.0 | 4.0 | 0.00 | 0.00 | 0.00 | 87 | 1011.6 |
| 20260510044532 | 76 | 91 | 0.0 | 4.0 | 0.00 | 0.00 | 0.00 | 87 | 1011.7 |
| 20260510044012 | 76 | 84 | 1.0 | 4.0 | 0.00 | 0.00 | 0.00 | 86 | 1011.7 |
| 20260510041008 | 77 | 86 | 2.0 | 8.0 | 0.00 | 0.00 | 0.00 | 85 | 1011.9 |
| 20260510040509 | 77 | 94 | 2.0 | 8.0 | 0.00 | 0.00 | 0.00 | 84 | 1011.8 |
| 20260510040020 | 77 | 97 | 2.0 | 10.0 | 0.00 | 0.00 | 0.00 | 84 | 1011.9 |
| 20260510035507 | 77 | 80 | 3.0 | 12.0 | 0.00 | 0.00 | 0.00 | 83 | 1012.0 |
| 20260510035007 | 78 | 92 | 4.0 | 12.0 | 0.00 | 0.00 | 0.00 | 83 | 1012.0 |
| 20260510034524 | 78 | 84 | 2.0 | 10.0 | 0.00 | 0.00 | 0.00 | 82 | 1012.1 |
| 20260510034010 | 78 | 80 | 3.0 | 10.0 | 0.00 | 0.00 | 0.00 | 81 | 1012.1 |
| 20260510033508 | 78 | 86 | 3.0 | 12.0 | 0.00 | 0.00 | 0.00 | 79 | 1012.2 |
| 20260510033009 | 79 | 97 | 4.0 | 12.0 | 0.00 | 0.00 | 0.00 | 77 | 1012.1 |
| 20260510032507 | 79 | 68 | 2.0 | 6.0 | 0.00 | 0.00 | 0.00 | 69 | 1012.1 |
| 20260510032009 | 79 | 102 | 2.0 | 6.0 | 0.00 | 0.00 | 0.00 | 68 | 1012.0 |
| 20260510031519 | 79 | 71 | 1.0 | 7.0 | 0.00 | 0.00 | 0.00 | 69 | 1012.0 |
| 20260510031008 | 79 | 86 | 2.0 | 7.0 | 0.00 | 0.00 | 0.00 | 69 | 1012.0 |
| 20260510030509 | 79 | 75 | 2.0 | 10.0 | 0.00 | 0.00 | 0.00 | 69 | 1012.1 |
| 20260510030034 | 79 | 84 | 1.0 | 10.0 | 0.00 | 0.00 | 0.00 | 70 | 1012.0 |
| 20260510025512 | 79 | 80 | 2.0 | 7.0 | 0.00 | 0.00 | 0.00 | 70 | 1011.7 |
| 20260510025014 | 78 | 72 | 2.0 | 5.0 | 0.00 | 0.00 | 0.00 | 70 | 1011.5 |
| 20260510024526 | 78 | 88 | 1.0 | 4.0 | 0.00 | 0.00 | 0.00 | 70 | 1011.3 |
| 20260510024004 | 78 | 90 | 0.0 | 2.0 | 0.00 | 0.00 | 0.00 | 70 | 1011.1 |
| 20260510023507 | 78 | 79 | 0.0 | 3.0 | 0.00 | 0.00 | 0.00 | 69 | 1010.9 |
| 20260510023013 | 78 | 78 | 0.0 | 3.0 | 0.00 | 0.00 | 0.00 | 69 | 1010.8 |
| 20260510022506 | 78 | 82 | 0.0 | 2.0 | 0.00 | 0.00 | 0.00 | 67 | 1010.4 |
| 20260510022008 | 78 | 89 | 0.0 | 3.0 | 0.00 | 0.00 | 0.00 | 65 | 1010.4 |
| 20260510021522 | 77 | 90 | 1.0 | 3.0 | 0.00 | 0.00 | 0.00 | 63 | 1010.3 |
| 20260510021008 | 77 | 82 | 0.0 | 1.0 | 0.00 | 0.00 | 0.00 | 63 | 1010.1 |
| 20260510020507 | 77 | 80 | 0.0 | 2.0 | 0.00 | 0.00 | 0.00 | 64 | 1009.9 |
| 20260510020028 | 77 | 80 | 0.0 | 2.0 | 0.00 | 0.00 | 0.00 | 64 | 1009.7 |
| 20260510015509 | 77 | 76 | 0.0 | 1.0 | 0.00 | 0.00 | 0.00 | 63 | 1009.5 |
| 20260510015011 | 77 | 76 | 0.0 | 1.0 | 0.00 | 0.00 | 0.00 | 65 | 1009.4 |
| 20260510014528 | 77 | 76 | 0.0 | 0.0 | 0.00 | 0.00 | 0.00 | 61 | 1009.2 |
| 20260510014005 | 78 | 82 | 0.0 | 0.0 | 0.00 | 0.00 | 0.00 | 60 | 1009.1 |
| 20260510013512 | 78 | 82 | 0.0 | 1.0 | 0.00 | 0.00 | 0.00 | 60 | 1009.2 |
| 20260510013015 | 79 | 82 | 0.0 | 1.0 | 0.00 | 0.00 | 0.00 | 60 | 1009.4 |
| 20260510012509 | 78 | 82 | 0.0 | 1.0 | 0.00 | 0.00 | 0.00 | 59 | 1009.4 |
| 20260510012008 | 79 | 78 | 0.0 | 2.0 | 0.00 | 0.00 | 0.00 | 58 | 1009.3 |
| 20260510011520 | 79 | 82 | 0.0 | 2.0 | 0.00 | 0.00 | 0.00 | 58 | 1009.3 |
| 20260510011013 | 79 | 74 | 0.0 | 3.0 | 0.00 | 0.00 | 0.00 | 57 | 1009.3 |
| 20260510010507 | 79 | 66 | 1.0 | 4.0 | 0.00 | 0.00 | 0.00 | 57 | 1009.2 |
| 20260510010026 | 80 | 80 | 1.0 | 4.0 | 0.00 | 0.00 | 0.00 | 55 | 1009.2 |
| 20260510005512 | 80 | 76 | 1.0 | 4.0 | 0.00 | 0.00 | 0.00 | 54 | 1009.0 |
| 20260510005010 | 80 | 70 | 1.0 | 4.0 | 0.00 | 0.00 | 0.00 | 54 | 1008.9 |
| 20260510004528 | 80 | 70 | 1.0 | 3.0 | 0.00 | 0.00 | 0.00 | 54 | 1008.9 |
| 20260510004010 | 81 | 88 | 1.0 | 4.0 | 0.00 | 0.00 | 0.00 | 53 | 1008.8 |
| 20260510003508 | 80 | 76 | 1.0 | 7.0 | 0.00 | 0.00 | 0.00 | 52 | 1008.7 |
| 20260510003024 | 80 | 67 | 2.0 | 7.0 | 0.00 | 0.00 | 0.00 | 51 | 1008.9 |
| 20260510002509 | 80 | 57 | 2.0 | 9.0 | 0.00 | 0.00 | 0.00 | 53 | 1009.1 |
| 20260510002011 | 80 | 67 | 2.0 | 9.0 | 0.00 | 0.00 | 0.00 | 54 | 1009.1 |
| 20260510001522 | 82 | 74 | 3.0 | 9.0 | 0.00 | 0.00 | 0.00 | 56 | 1009.0 |
| 20260510001012 | 84 | 80 | 4.0 | 8.0 | 0.00 | 0.00 | 0.00 | 57 | 1008.8 |
| 20260510000511 | 86 | 279 | 1.0 | 4.0 | 0.00 | 0.00 | 0.00 | 63 | 1008.7 |
| 20260510000026 | 86 | 68 | 1.0 | 5.0 | 0.00 | 0.00 | 0.00 | 64 | 1008.7 |
| 20260509235510 | 86 | 75 | 2.0 | 5.0 | 0.00 | 0.00 | 0.00 | 65 | 1008.6 |
| 20260509235012 | 86 | 247 | 0.0 | 1.0 | 0.00 | 0.00 | 0.00 | 66 | 1008.4 |
| 20260509234008 | 87 | 247 | 0.0 | 1.0 | 0.00 | 0.00 | 0.00 | 64 | 1008.3 |
| 20260509233025 | 87 | 247 | 0.0 | 2.0 | 0.00 | 0.00 | 0.00 | 63 | 1008.4 |
| 20260509231010 | 86 | 247 | 0.0 | 0.0 | 0.00 | 0.00 | 0.00 | 66 | 1008.2 |
| 20260509230509 | 86 | 247 | 0.0 | 1.0 | 0.00 | 0.00 | 0.00 | 64 | 1008.2 |
| 20260509230026 | 87 | 247 | 0.0 | 1.0 | 0.00 | 0.00 | 0.00 | 63 | 1008.2 |
| 20260509225507 | 87 | 247 | 0.0 | 1.0 | 0.00 | 0.00 | 0.00 | 62 | 1008.1 |
| 20260509225010 | 87 | 247 | 0.0 | 1.0 | 0.00 | 0.00 | 0.00 | 61 | 1008.0 |
| 20260509224517 | 87 | 247 | 0.0 | 1.0 | 0.00 | 0.00 | 0.00 | 63 | 1008.0 |
| 20260509223511 | 87 | 247 | 0.0 | 2.0 | 0.00 | 0.00 | 0.00 | 63 | 1008.1 |
| 20260509222508 | 88 | 247 | 1.0 | 3.0 | 0.00 | 0.00 | 0.00 | 60 | 1008.1 |
| 20260509222011 | 88 | 247 | 0.0 | 2.0 | 0.00 | 0.00 | 0.00 | 61 | 1008.1 |
| 20260509221530 | 88 | 247 | 0.0 | 3.0 | 0.00 | 0.00 | 0.00 | 62 | 1007.9 |